TimeCDT,TemperatureF,Dew PointF,Humidity,Sea Level PressureIn,VisibilityMPH,Wind Direction,Wind SpeedMPH,Gust SpeedMPH,PrecipitationIn,Events,Conditions,WindDirDegrees,DateUTC
12:52 AM,19.0,16.0,88,30.18,6.0,East,5.8,-,0.00,Snow,Light Snow,80,2013-03-23 05:52:00
1:48 AM,19.4,15.8,86,30.09,5.0,East,5.8,-,0.00,Snow,Light Snow,80,2013-03-23 06:48:00
1:52 AM,19.0,16.0,88,30.18,5.0,ENE,4.6,-,0.00,Snow,Light Snow,70,2013-03-23 06:52:00
2:52 AM,19.0,16.0,88,30.18,4.0,ENE,3.5,-,0.00,Snow,Light Snow,60,2013-03-23 07:52:00
3:42 AM,19.0,16.0,88,30.11,5.0,Calm,Calm,-,0.00,Snow,Light Snow,0,2013-03-23 08:42:00
3:52 AM,19.0,16.0,88,30.19,5.0,Calm,Calm,-,0.00,Snow,Light Snow,0,2013-03-23 08:52:00
4:23 AM,19.0,17.1,92,30.11,4.0,West,3.5,-,0.00,Snow,Light Snow,270,2013-03-23 09:23:00
4:34 AM,19.0,17.1,92,30.11,3.0,West,3.5,-,0.00,Snow,Light Snow,270,2013-03-23 09:34:00
4:45 AM,19.0,17.1,92,30.11,2.5,West,3.5,-,0.01,Snow,Light Snow,270,2013-03-23 09:45:00
4:52 AM,19.0,17.1,92,30.19,2.5,WNW,4.6,-,0.01,Snow,Light Snow,290,2013-03-23 09:52:00
4:59 AM,19.9,17.1,89,30.10,2.5,West,3.5,-,0.00,Snow,Light Snow,280,2013-03-23 09:59:00
5:30 AM,19.0,17.1,92,30.10,4.0,West,3.5,-,0.00,Snow,Light Snow,280,2013-03-23 10:30:00
5:52 AM,19.9,17.1,89,30.19,4.0,WNW,5.8,-,0.00,Snow,Light Snow,290,2013-03-23 10:52:00
6:52 AM,19.0,16.0,88,30.21,5.0,WNW,11.5,-,0.00,Snow,Light Snow,290,2013-03-23 11:52:00
7:04 AM,19.0,15.1,85,30.13,5.0,WNW,11.5,-,0.00,Snow,Light Snow,290,2013-03-23 12:04:00
7:27 AM,19.0,15.1,85,30.14,5.0,WNW,10.4,-,0.00,Snow,Light Snow,290,2013-03-23 12:27:00
7:52 AM,18.0,14.0,84,30.23,4.0,WNW,10.4,-,0.00,Snow,Light Snow,290,2013-03-23 12:52:00
8:05 AM,18.0,14.0,84,30.14,4.0,WNW,10.4,-,0.00,Snow,Light Snow,290,2013-03-23 13:05:00
8:22 AM,18.0,14.0,84,30.15,3.0,WNW,10.4,-,0.00,Snow,Light Snow,290,2013-03-23 13:22:00
8:39 AM,18.0,14.0,84,30.15,2.5,WNW,11.5,-,0.00,Snow,Light Snow,290,2013-03-23 13:39:00
8:52 AM,18.0,14.0,84,30.25,3.0,WNW,9.2,-,0.00,Snow,Light Snow,300,2013-03-23 13:52:00
9:26 AM,18.0,14.0,84,30.16,2.5,WNW,10.4,-,0.00,Snow,Light Snow,290,2013-03-23 14:26:00
9:52 AM,18.0,12.9,81,30.26,2.5,WNW,10.4,-,0.00,Snow,Light Snow,300,2013-03-23 14:52:00
10:14 AM,18.0,12.9,81,30.17,3.0,WNW,11.5,-,0.00,Snow,Light Snow,300,2013-03-23 15:14:00
10:52 AM,19.0,12.9,77,30.27,4.0,WNW,10.4,-,0.00,Snow,Light Snow,290,2013-03-23 15:52:00
11:52 AM,19.9,12.9,74,30.28,4.0,NW,9.2,-,0.00,Snow,Light Snow,310,2013-03-23 16:52:00
12:52 PM,21.9,14.0,72,30.27,5.0,WNW,10.4,-,0.00,Snow,Light Snow,290,2013-03-23 17:52:00
1:17 PM,24.1,15.1,69,30.18,8.0,WNW,11.5,-,0.00,,Overcast,290,2013-03-23 18:17:00
1:30 PM,23.0,15.1,72,30.18,10.0,WNW,10.4,-,0.00,,Overcast,300,2013-03-23 18:30:00
1:52 PM,24.1,15.1,69,30.26,10.0,NW,10.4,-,0.00,,Mostly Cloudy,310,2013-03-23 18:52:00
2:52 PM,25.0,15.1,66,30.25,10.0,WNW,12.7,-,N/A,,Mostly Cloudy,290,2013-03-23 19:52:00
3:52 PM,25.0,15.1,66,30.25,10.0,NW,11.5,-,N/A,,Overcast,310,2013-03-23 20:52:00
4:28 PM,25.0,15.1,66,30.16,9.0,WNW,10.4,-,0.00,,Overcast,300,2013-03-23 21:28:00
4:52 PM,25.0,16.0,69,30.26,7.0,NW,11.5,-,0.01,,Overcast,310,2013-03-23 21:52:00
5:19 PM,24.1,17.1,75,30.17,1.8,NNW,11.5,-,0.00,Snow,Light Snow,330,2013-03-23 22:19:00
5:52 PM,23.0,17.1,78,30.26,1.2,NW,8.1,-,0.00,Snow,Light Snow,310,2013-03-23 22:52:00
6:12 PM,23.0,16.0,74,30.18,2.5,WNW,10.4,-,0.00,Snow,Light Snow,300,2013-03-23 23:12:00
6:18 PM,23.0,15.1,72,30.18,4.0,NW,11.5,-,0.00,Snow,Light Snow,310,2013-03-23 23:18:00
6:52 PM,23.0,16.0,74,30.28,3.0,NNW,9.2,-,0.00,Snow,Light Snow,340,2013-03-23 23:52:00
7:06 PM,21.9,15.1,75,30.19,6.0,NNW,10.4,-,0.00,Snow,Light Snow,330,2013-03-24 00:06:00
7:12 PM,21.9,16.0,78,30.20,2.5,NW,9.2,-,0.00,Snow,Light Snow,320,2013-03-24 00:12:00
7:25 PM,21.9,15.1,75,30.20,5.0,NNW,12.7,-,0.00,Snow,Light Snow,330,2013-03-24 00:25:00
7:52 PM,21.0,12.9,71,30.30,10.0,NW,9.2,-,0.00,,Overcast,310,2013-03-24 00:52:00
7:59 PM,19.9,14.0,78,30.20,10.0,North,10.4,-,N/A,,Overcast,350,2013-03-24 00:59:00
8:27 PM,19.0,14.0,81,30.20,9.0,NNW,8.1,-,N/A,,Overcast,340,2013-03-24 01:27:00
8:52 PM,19.0,12.9,77,30.30,10.0,NNW,9.2,-,N/A,,Overcast,330,2013-03-24 01:52:00
9:11 PM,18.0,12.9,81,30.21,10.0,NW,9.2,-,N/A,,Mostly Cloudy,320,2013-03-24 02:11:00
9:33 PM,18.0,12.9,81,30.22,10.0,NW,10.4,-,N/A,,Mostly Cloudy,320,2013-03-24 02:33:00
9:40 PM,18.0,12.9,81,30.22,10.0,NW,9.2,-,N/A,,Scattered Clouds,320,2013-03-24 02:40:00
9:52 PM,17.1,12.0,81,30.32,10.0,NW,9.2,-,N/A,,Partly Cloudy,320,2013-03-24 02:52:00
10:52 PM,17.1,12.0,81,30.31,7.0,WNW,5.8,-,0.00,Snow,Light Snow,290,2013-03-24 03:52:00
11:52 PM,16.0,12.9,88,30.30,3.0,WNW,6.9,-,0.00,Snow,Light Snow,290,2013-03-24 04:52:00